Weather History for Craig, CO

Change the Weather History Date:

Tuesday, January 29, 2013

  Actual Average Record
Temperature  
Mean Temperature 8 °F 17 °F  
Max Temperature 18 °F 31 °F 43 °F (2005)
Min Temperature -2 °F 4 °F -16 °F (2007)
Degree Days  
Heating Degree Days 57 48  
Month to date heating degree days 1716 1431  
Since 1 July heating degree days 4887 4987  
Cooling Degree Days 0 0  
Month to date cooling degree days 0 0  
Year to date cooling degree days 0 0  
Moisture  
Dew Point 7 °F    
Average Humidity 82    
Maximum Humidity 96    
Minimum Humidity 67    
Precipitation  
Precipitation 0.05 in 0.03 in 0.16 in (2002)
Month to date precipitation 0.71 0.81  
Year to date precipitation 0.71 0.81  
Sea Level Pressure  
Sea Level Pressure 29.94 in    
Wind  
Wind Speed 2 mph (WSW)    
Max Wind Speed 9 mph    
Max Gust Speed 10 mph    
Visibility 5 miles    
Events Fog , Snow    
T = Trace of Precipitation, MM = Missing Value Source: NWS Daily Summary

Daily Weather History Graph

Daily Weather History Graph

Search for Another Location

Airport:

Trip Planner

Search our weather history database for the weather conditions in past years. The results will help you decide how hot, cold, wet, or windy it might be!

Date:

Astronomy

Jan. 29, 2013 Rise Set
Actual Time 7:22 AM MST 5:25 PM MST
Civil Twilight 6:53 AM MST 5:54 PM MST
Nautical Twilight 6:20 AM MST 6:26 PM MST
Astronomical Twilight 5:48 AM MST 6:58 PM MST
Moon 8:25 PM MST (1/29) 8:19 AM MST (1/29)
Length of Visible Light 11h 00m
Length of Day
10h 02m
Waning Gibbous, 93% of the Moon is Illuminated
Jan 29
Waning Gibbous
Feb 3
Last Quarter
Feb 10
New
Feb 17
First Quarter
Feb 25
Full

Hourly Weather History & Observations

Time (MST) Temp. Windchill Dew Point Humidity Pressure Visibility Wind Dir Wind Speed Gust Speed Precip Events Conditions
12:53 AM 10.9 °F -1.8 °F 3.9 °F 73% 30.00 in 10.0 mi West 9.2 mph - N/A   Overcast
1:53 AM 10.9 °F - 3.0 °F 70% 29.99 in 10.0 mi Calm Calm - N/A   Overcast
2:53 AM 6.1 °F - 1.0 °F 80% 30.02 in 10.0 mi Calm Calm - N/A   Overcast
3:53 AM 7.0 °F - 1.0 °F 77% 30.00 in 10.0 mi Calm Calm - N/A   Overcast
4:53 AM -0.4 °F - -5.8 °F 78% 29.79 in 10.0 mi Calm Calm - N/A   Clear
5:53 AM 3.9 °F - -0.9 °F 80% 30.00 in 10.0 mi Calm Calm - N/A   Overcast
6:53 AM 7.0 °F - 1.9 °F 80% 30.00 in 10.0 mi Calm Calm - N/A   Overcast
7:53 AM 8.1 °F - 3.9 °F 83% 30.00 in 10.0 mi Calm Calm - N/A   Overcast
8:10 AM 8.6 °F 0.1 °F 3.2 °F 79% 29.78 in 2.0 mi SSW 4.6 mph - 0.00 in Snow Light Snow
8:45 AM 10.4 °F - 6.8 °F 85% 29.78 in 1.8 mi Calm Calm - 0.00 in Snow Light Snow
8:53 AM 10.9 °F - 6.1 °F 81% 29.99 in 1.2 mi Calm Calm - 0.00 in Snow Light Snow
9:24 AM 10.4 °F - 6.8 °F 85% 29.79 in 1.0 mi Calm Calm - 0.00 in Snow Light Snow
9:36 AM 12.2 °F - 8.6 °F 85% 29.79 in 0.8 mi Calm Calm - 0.00 in Snow Light Snow
9:51 AM 12.2 °F - 8.6 °F 85% 29.79 in 0.5 mi Calm Calm - 0.01 in Fog , Snow Light Snow
9:53 AM 12.0 °F - 8.1 °F 84% 29.99 in 0.5 mi Calm Calm - 0.01 in Fog , Snow Light Snow
10:05 AM 12.2 °F - 8.6 °F 85% 29.79 in 1.0 mi Calm Calm - 0.00 in Snow Light Snow
10:10 AM 12.2 °F - 8.6 °F 85% 29.79 in 1.2 mi Calm Calm - 0.00 in Snow Light Snow
10:24 AM 12.2 °F - 8.6 °F 85% 29.79 in 1.0 mi Calm Calm - 0.00 in Snow Light Snow
10:41 AM 12.2 °F - 8.6 °F 85% 29.80 in 0.8 mi Calm Calm - 0.01 in Snow Light Snow
10:53 AM 12.9 °F - 9.0 °F 84% 30.00 in 0.8 mi Calm Calm - 0.01 in Snow Light Snow
11:10 AM 14.0 °F - 10.4 °F 86% 29.80 in 1.0 mi Calm Calm - 0.00 in Snow Light Snow
11:17 AM 14.0 °F - 10.4 °F 86% 29.80 in 1.2 mi Calm Calm - 0.00 in Snow Light Snow
11:41 AM 14.0 °F - 10.4 °F 86% 29.80 in 1.0 mi Calm Calm - 0.01 in Snow Light Snow
11:53 AM 15.1 °F - 10.0 °F 80% 30.00 in 1.0 mi Calm Calm - 0.01 in Snow Light Snow
11:58 AM 15.8 °F - 10.4 °F 79% 29.80 in 0.8 mi Calm Calm - 0.00 in Snow Light Snow
12:11 PM 15.8 °F - 10.4 °F 79% 29.79 in 0.8 mi Calm Calm - 0.00 in Snow Light Snow
12:41 PM 15.8 °F 10.2 °F 10.4 °F 79% 29.79 in 1.2 mi SW 3.5 mph - 0.01 in Snow Light Snow
12:48 PM 15.8 °F 8.6 °F 12.2 °F 86% 29.79 in 1.5 mi SSW 4.6 mph - 0.01 in Snow Light Snow
12:53 PM 15.1 °F 9.4 °F 10.9 °F 84% 30.00 in 1.0 mi SSW 3.5 mph - 0.01 in Snow Light Snow
1:08 PM 15.8 °F 10.2 °F 10.4 °F 79% 29.78 in 1.8 mi SW 3.5 mph - 0.00 in Snow Light Snow
1:15 PM 15.8 °F 10.2 °F 10.4 °F 79% 29.78 in 2.5 mi SW 3.5 mph - 0.00 in Snow Light Snow
1:24 PM 15.8 °F - 10.4 °F 79% 29.78 in 4.0 mi Calm Calm - 0.00 in Snow Light Snow
1:45 PM 17.6 °F - 10.4 °F 73% 29.78 in 1.8 mi Calm Calm - 0.00 in Snow Light Snow
1:53 PM 16.0 °F 7.4 °F 10.9 °F 81% 29.99 in 1.2 mi West 5.8 mph - 0.00 in Snow Light Snow
2:20 PM 15.8 °F 7.2 °F 10.4 °F 79% 29.79 in 3.0 mi West 5.8 mph - 0.00 in Snow Light Snow
2:39 PM 17.6 °F 7.3 °F 12.2 °F 79% 29.79 in 4.0 mi West 8.1 mph - 0.00 in   Haze
2:49 PM 17.6 °F 8.2 °F 12.2 °F 79% 29.79 in 2.0 mi West 6.9 mph - 0.00 in Snow Light Snow
2:53 PM 18.0 °F 7.7 °F 12.0 °F 78% 30.02 in 3.0 mi West 8.1 mph - 0.00 in Snow Light Snow
3:34 PM 17.6 °F 8.2 °F 10.4 °F 73% 29.82 in 2.5 mi WSW 6.9 mph - 0.00 in Snow Light Snow
3:42 PM 17.6 °F 8.2 °F 12.2 °F 79% 29.82 in 1.2 mi WSW 6.9 mph - 0.00 in Snow Light Snow
3:53 PM 18.0 °F 9.8 °F 12.9 °F 81% 30.04 in 1.5 mi West 5.8 mph - 0.00 in Snow Light Snow
4:05 PM 17.6 °F 9.3 °F 12.2 °F 79% 29.83 in 3.0 mi West 5.8 mph - 0.00 in Snow Light Snow
4:21 PM 14.0 °F 6.5 °F 10.4 °F 86% 29.83 in 10.0 mi SSW 4.6 mph - 0.00 in   Mostly Cloudy
4:53 PM 12.9 °F - 8.1 °F 81% 30.13 in 10.0 mi Calm Calm - 0.00 in   Mostly Cloudy
5:07 PM 15.8 °F 10.2 °F 10.4 °F 79% 29.86 in 1.8 mi WNW 3.5 mph - 0.00 in Snow Light Snow
5:11 PM 15.8 °F 10.2 °F 10.4 °F 79% 29.86 in 1.0 mi WNW 3.5 mph - 0.00 in Snow Light Snow
5:19 PM 15.8 °F - 12.2 °F 86% 29.86 in 0.5 mi Calm Calm - 0.01 in Fog , Snow Snow
5:29 PM 15.8 °F - 12.2 °F 86% 29.87 in 0.8 mi Calm Calm - 0.01 in Snow Light Snow
5:31 PM 15.8 °F - 12.2 °F 86% 29.87 in 1.2 mi Calm Calm - 0.01 in Snow Light Snow
5:34 PM 15.8 °F - 12.2 °F 86% 29.87 in 3.0 mi Calm Calm - 0.01 in Snow Light Snow
5:44 PM 12.2 °F - 10.4 °F 92% 29.88 in 10.0 mi Calm Calm - 0.01 in   Scattered Clouds
5:53 PM 9.0 °F - 6.1 °F 88% 30.15 in 10.0 mi Calm Calm - 0.01 in   Partly Cloudy
6:53 PM 5.0 °F - 3.0 °F 92% 30.19 in 10.0 mi Calm Calm - N/A   Clear
7:53 PM 3.9 °F -6.9 °F 1.0 °F 88% 30.22 in 10.0 mi SW 5.8 mph - N/A   Clear
8:53 PM 5.0 °F - 1.9 °F 87% 30.22 in 8.0 mi Calm Calm - N/A   Overcast
9:48 PM 6.8 °F - 1.4 °F 79% 29.98 in 10.0 mi Calm Calm - N/A   Overcast
9:53 PM 7.0 °F - 1.9 °F 80% 30.23 in 10.0 mi Calm Calm - N/A   Overcast
10:17 PM 6.8 °F - 1.4 °F 79% 29.98 in 2.0 mi Calm Calm - 0.00 in Snow Light Snow
10:30 PM 6.8 °F - -0.4 °F 72% 29.98 in 5.0 mi Calm Calm - 0.00 in   Haze
10:53 PM 3.0 °F - -0.9 °F 84% 30.26 in 7.0 mi Calm Calm - 0.00 in   Mostly Cloudy
11:00 PM 1.4 °F - -2.2 °F 85% 29.99 in 10.0 mi Calm Calm - N/A   Scattered Clouds
11:53 PM 1.9 °F - -2.9 °F 80% 30.27 in 10.0 mi Calm Calm - N/A   Clear